星链-1445 (STARLINK-1445 )

导读 | 星芒AI

STARLINK-1445 是 SpaceX Starlink 项目中的一颗低轨通信卫星,属于第5批发射的星链卫星群。该卫星于2020年11月25日通过猎鹰9号火箭成功送入近地轨道,旨在为全球提供高速、低延迟的互联网服务。STARLINK-1445 运行在约550公里高度的轨道上,采用先进的相控阵天线和激光通信技术,以提升连接效率和覆盖范围。作为星链网络的一部分,它支持偏远地区的宽带接入,并为全球用户实现更广泛的互联网覆盖。

基本信息
目录编号:
45662
目录名称:
STARLINK-1445
国际标识:
2020-035F
轨道中心:
EARTH
卫星名称:
星链-1445
卫星全名:
星链-1445 (STARLINK-1445 )
卫星状态:
已陨落 最后检测时间 2024-12-18
发射日期:
2020-06-04 UTC
国别 :
美国 (US)
星等 :
--
轨道信息
数据来源 国际轨道数据
星历时间: 2024-12-18T19:58:20+0800
轨道信息已过期362天
半长轴: 6556.947km
偏心率: 0.0004506
轨道倾角: 53.038°
近地点辐角 233.448°
升交点赤经 237.331°
平近点角 264.804°
近地点: 175.857km
远地点: 181.767km
周期: 88.067分钟
每日圈数: 16.351225
详细信息
固有亮度:
5
最大亮度:
2.5
卫星平台:
Starlink V1.0
覆盖范围:
全球
运营商:
太空探索技术公司
运营商所在国:
美国
制造商(研发单位):
太空探索技术公司
制造商所在国:
美国
使用方式:
暂无
卫星简介
星链(Starlink)计划是由太空探索技术公司(SpaceX)提出的一个巨型低轨卫星互联网星座项目,计划在2019年至2024年间在太空搭建由约1.2万颗卫星组成的“星链”网络,其中1584颗将部署在地球上空550千米处的近地轨道,并从2020年开始工作。该卫星仍在工作。